Time,TemperatureF,DewpointF,PressureIn,WindDirection,WindDirectionDegrees,WindSpeedMPH,WindSpeedGustMPH,Humidity,HourlyPrecipIn,Conditions,Clouds,dailyrainin,SoftwareType,DateUTC
2013-12-10 00:10:00,43.9,43.0,30.05,WNW,288,0.0,0.0,95,0.00,,,0.00,weatherlink.com 1.10,2013-12-10 05:10:00,
2013-12-10 00:25:00,43.9,43.0,30.04,WNW,288,0.0,0.0,95,0.00,,,0.00,weatherlink.com 1.10,2013-12-10 05:25:00,
2013-12-10 00:40:00,43.8,43.0,30.03,WNW,288,0.0,0.0,95,0.00,,,0.00,weatherlink.com 1.10,2013-12-10 05:40:00,
2013-12-10 00:55:00,43.8,43.0,30.02,WNW,288,0.0,0.0,95,0.00,,,0.00,weatherlink.com 1.10,2013-12-10 05:55:00,
2013-12-10 01:10:00,43.8,43.0,30.01,WNW,288,0.0,0.0,95,0.00,,,0.00,weatherlink.com 1.10,2013-12-10 06:10:00,
2013-12-10 01:25:00,44.0,43.0,30.02,WNW,288,0.0,0.0,95,0.00,,,0.00,weatherlink.com 1.10,2013-12-10 06:25:00,
2013-12-10 01:40:00,44.0,43.0,30.00,NNW,331,1.0,3.0,95,0.00,,,0.00,weatherlink.com 1.10,2013-12-10 06:40:00,
2013-12-10 01:55:00,44.1,43.0,30.00,NNW,331,0.0,2.0,95,0.00,,,0.00,weatherlink.com 1.10,2013-12-10 06:55:00,
2013-12-10 02:11:00,44.1,43.0,30.00,NW,307,1.0,3.0,95,0.00,,,0.00,weatherlink.com 1.10,2013-12-10 07:11:00,
2013-12-10 02:26:00,44.3,43.0,30.00,NW,307,0.0,2.0,95,0.00,,,0.00,weatherlink.com 1.10,2013-12-10 07:26:00,
2013-12-10 02:41:00,44.3,43.0,29.99,NW,307,0.0,2.0,95,0.00,,,0.00,weatherlink.com 1.10,2013-12-10 07:41:00,
2013-12-10 02:56:00,44.4,43.0,29.98,NW,307,0.0,0.0,95,0.00,,,0.00,weatherlink.com 1.10,2013-12-10 07:56:00,
2013-12-10 03:11:00,44.5,43.0,29.97,NW,307,0.0,2.0,95,0.00,,,0.00,weatherlink.com 1.10,2013-12-10 08:11:00,
2013-12-10 03:26:00,44.6,43.0,29.97,NW,307,1.0,3.0,95,0.00,,,0.00,weatherlink.com 1.10,2013-12-10 08:26:00,
2013-12-10 03:41:00,44.7,43.0,29.97,NW,307,0.0,2.0,95,0.00,,,0.00,weatherlink.com 1.10,2013-12-10 08:41:00,
2013-12-10 03:56:00,44.7,43.0,29.96,NW,307,0.0,2.0,95,0.00,,,0.00,weatherlink.com 1.10,2013-12-10 08:56:00,
2013-12-10 04:11:00,44.7,43.0,29.96,NW,307,0.0,1.0,95,0.01,,,0.01,weatherlink.com 1.10,2013-12-10 09:11:00,
2013-12-10 04:26:00,44.7,43.0,29.96,NW,307,0.0,3.0,95,0.01,,,0.01,weatherlink.com 1.10,2013-12-10 09:26:00,
2013-12-10 04:42:00,44.7,43.0,29.96,NW,307,1.0,2.0,95,0.01,,,0.01,weatherlink.com 1.10,2013-12-10 09:42:00,
2013-12-10 04:56:00,44.7,43.0,29.95,NW,307,1.0,3.0,95,0.01,,,0.01,weatherlink.com 1.10,2013-12-10 09:56:00,
2013-12-10 05:11:00,44.7,43.0,29.95,NW,307,1.0,1.0,95,0.00,,,0.01,weatherlink.com 1.10,2013-12-10 10:11:00,
2013-12-10 05:26:00,44.6,43.0,29.94,NW,307,0.0,1.0,95,0.00,,,0.01,weatherlink.com 1.10,2013-12-10 10:26:00,
2013-12-10 05:41:00,44.7,43.0,29.93,NW,307,0.0,1.0,95,0.00,,,0.01,weatherlink.com 1.10,2013-12-10 10:41:00,
2013-12-10 05:56:00,44.7,43.0,29.93,NW,307,0.0,1.0,95,0.00,,,0.01,weatherlink.com 1.10,2013-12-10 10:56:00,
2013-12-10 06:11:00,44.8,44.0,29.93,NW,307,1.0,2.0,95,0.00,,,0.01,weatherlink.com 1.10,2013-12-10 11:11:00,
2013-12-10 06:26:00,44.8,44.0,29.92,NW,307,0.0,2.0,95,0.00,,,0.01,weatherlink.com 1.10,2013-12-10 11:26:00,
2013-12-10 06:41:00,44.9,44.0,29.91,NW,307,0.0,2.0,95,0.00,,,0.01,weatherlink.com 1.10,2013-12-10 11:41:00,
2013-12-10 06:56:00,44.9,44.0,29.93,NW,312,0.0,8.0,95,0.01,,,0.02,weatherlink.com 1.10,2013-12-10 11:56:00,
2013-12-10 07:11:00,44.7,43.0,29.92,NW,323,3.0,4.0,95,0.04,,,0.05,weatherlink.com 1.10,2013-12-10 12:11:00,
2013-12-10 07:26:00,44.7,43.0,29.94,NW,312,0.0,2.0,95,0.16,,,0.17,weatherlink.com 1.10,2013-12-10 12:26:00,
2013-12-10 07:41:00,44.6,43.0,29.93,NW,312,0.0,1.0,95,0.17,,,0.18,weatherlink.com 1.10,2013-12-10 12:41:00,
2013-12-10 07:56:00,44.7,43.0,29.94,NW,312,0.0,1.0,95,0.17,,,0.19,weatherlink.com 1.10,2013-12-10 12:56:00,
2013-12-10 08:11:00,44.9,44.0,29.95,NNW,332,3.0,4.0,95,0.14,,,0.19,weatherlink.com 1.10,2013-12-10 13:11:00,
2013-12-10 08:26:00,44.9,44.0,29.94,NNE,28,3.0,4.0,95,0.02,,,0.19,weatherlink.com 1.10,2013-12-10 13:26:00,
2013-12-10 08:41:00,45.0,44.0,29.95,NNE,31,1.0,3.0,95,0.01,,,0.19,weatherlink.com 1.10,2013-12-10 13:41:00,
2013-12-10 08:56:00,45.0,44.0,29.96,NNE,19,2.0,3.0,95,0.00,,,0.19,weatherlink.com 1.10,2013-12-10 13:56:00,
2013-12-10 09:11:00,45.1,44.0,29.96,NNE,19,0.0,3.0,95,0.00,,,0.19,weatherlink.com 1.10,2013-12-10 14:11:00,
2013-12-10 09:26:00,45.2,44.0,29.97,NNE,19,2.0,2.0,95,0.01,,,0.20,weatherlink.com 1.10,2013-12-10 14:26:00,
2013-12-10 09:41:00,45.5,44.0,29.97,NNE,17,0.0,3.0,95,0.01,,,0.20,weatherlink.com 1.10,2013-12-10 14:41:00,
2013-12-10 09:56:00,45.8,45.0,29.97,NE,36,4.0,5.0,95,0.01,,,0.20,weatherlink.com 1.10,2013-12-10 14:56:00,
2013-12-10 10:11:00,46.3,45.0,29.98,NNE,33,0.0,3.0,95,0.01,,,0.20,weatherlink.com 1.10,2013-12-10 15:11:00,
2013-12-10 10:26:00,46.5,45.0,29.99,NNE,29,2.0,3.0,95,0.00,,,0.20,weatherlink.com 1.10,2013-12-10 15:26:00,
2013-12-10 10:41:00,47.3,46.0,29.99,NE,53,1.0,4.0,96,0.00,,,0.20,weatherlink.com 1.10,2013-12-10 15:41:00,
2013-12-10 10:56:00,47.5,47.0,30.00,NNE,23,2.0,5.0,97,0.00,,,0.20,weatherlink.com 1.10,2013-12-10 15:56:00,
2013-12-10 11:11:00,47.7,47.0,30.01,NNE,30,2.0,5.0,97,0.00,,,0.20,weatherlink.com 1.10,2013-12-10 16:11:00,
2013-12-10 11:26:00,47.9,47.0,30.02,NE,35,3.0,6.0,96,0.00,,,0.20,weatherlink.com 1.10,2013-12-10 16:26:00,
2013-12-10 11:41:00,48.4,47.0,30.03,NW,317,5.0,7.0,96,0.00,,,0.20,weatherlink.com 1.10,2013-12-10 16:41:00,
2013-12-10 11:56:00,49.0,48.0,30.04,NNE,17,6.0,7.0,96,0.00,,,0.20,weatherlink.com 1.10,2013-12-10 16:56:00,
2013-12-10 12:11:00,50.3,49.0,30.04,ESE,108,2.0,7.0,94,0.00,,,0.20,weatherlink.com 1.10,2013-12-10 17:11:00,
2013-12-10 12:26:00,50.1,48.0,30.05,North,350,4.0,9.0,93,0.00,,,0.20,weatherlink.com 1.10,2013-12-10 17:26:00,
2013-12-10 12:42:00,50.3,49.0,30.05,NNW,346,2.0,9.0,94,0.00,,,0.20,weatherlink.com 1.10,2013-12-10 17:42:00,
2013-12-10 12:57:00,50.6,48.0,30.05,NW,321,4.0,6.0,92,0.00,,,0.20,weatherlink.com 1.10,2013-12-10 17:57:00,
2013-12-10 13:12:00,51.7,50.0,30.05,North,349,4.0,6.0,92,0.00,,,0.20,weatherlink.com 1.10,2013-12-10 18:12:00,
2013-12-10 13:27:00,52.4,49.0,30.06,NE,42,1.0,9.0,89,0.00,,,0.20,weatherlink.com 1.10,2013-12-10 18:27:00,
2013-12-10 13:42:00,51.1,46.0,30.06,NNE,20,4.0,7.0,82,0.00,,,0.20,weatherlink.com 1.10,2013-12-10 18:42:00,
2013-12-10 13:57:00,53.0,43.0,30.07,NNW,344,4.0,10.0,70,0.00,,,0.20,weatherlink.com 1.10,2013-12-10 18:57:00,
2013-12-10 14:12:00,52.6,42.0,30.08,NNW,345,6.0,14.0,68,0.00,,,0.20,weatherlink.com 1.10,2013-12-10 19:12:00,
2013-12-10 14:27:00,52.0,39.0,30.09,NE,36,4.0,10.0,62,0.00,,,0.20,weatherlink.com 1.10,2013-12-10 19:27:00,
2013-12-10 14:42:00,53.1,39.0,30.09,WNW,296,5.0,11.0,60,0.00,,,0.20,weatherlink.com 1.10,2013-12-10 19:42:00,
2013-12-10 14:57:00,52.7,39.0,30.10,NW,306,4.0,11.0,59,0.00,,,0.20,weatherlink.com 1.10,2013-12-10 19:57:00,
2013-12-10 15:12:00,52.6,37.0,30.11,NW,323,7.0,12.0,56,0.00,,,0.20,weatherlink.com 1.10,2013-12-10 20:12:00,
2013-12-10 15:27:00,51.9,36.0,30.12,NW,315,6.0,12.0,54,0.00,,,0.20,weatherlink.com 1.10,2013-12-10 20:27:00,
2013-12-10 15:42:00,51.2,35.0,30.13,NW,321,8.0,10.0,55,0.00,,,0.20,weatherlink.com 1.10,2013-12-10 20:42:00,
2013-12-10 15:57:00,50.4,35.0,30.14,NNW,343,4.0,7.0,57,0.00,,,0.20,weatherlink.com 1.10,2013-12-10 20:57:00,
2013-12-10 16:12:00,49.7,34.0,30.15,NNE,17,3.0,6.0,56,0.00,,,0.20,weatherlink.com 1.10,2013-12-10 21:12:00,
2013-12-10 16:27:00,48.6,33.0,30.15,NW,322,2.0,9.0,56,0.00,,,0.20,weatherlink.com 1.10,2013-12-10 21:27:00,
2013-12-10 16:42:00,47.9,34.0,30.16,WNW,303,5.0,7.0,60,0.00,,,0.20,weatherlink.com 1.10,2013-12-10 21:42:00,
2013-12-10 16:57:00,46.8,32.0,30.17,NW,315,5.0,7.0,56,0.00,,,0.20,weatherlink.com 1.10,2013-12-10 21:57:00,
2013-12-10 17:42:00,43.5,29.0,30.20,WNW,296,2.0,5.0,58,0.00,,,0.20,weatherlink.com 1.10,2013-12-10 22:42:00,
2013-12-10 17:58:00,42.9,29.0,30.21,NW,305,0.0,4.0,58,0.00,,,0.20,weatherlink.com 1.10,2013-12-10 22:58:00,
2013-12-10 18:13:00,42.1,29.0,30.22,NW,318,2.0,5.0,61,0.00,,,0.20,weatherlink.com 1.10,2013-12-10 23:13:00,
2013-12-10 18:28:00,41.3,29.0,30.23,NNW,346,5.0,9.0,61,0.00,,,0.20,weatherlink.com 1.10,2013-12-10 23:28:00,
2013-12-10 18:43:00,40.6,27.0,30.24,North,351,3.0,10.0,59,0.00,,,0.20,weatherlink.com 1.10,2013-12-10 23:43:00,
2013-12-10 18:58:00,39.9,26.0,30.25,NW,307,4.0,4.0,59,0.00,,,0.20,weatherlink.com 1.10,2013-12-10 23:58:00,
2013-12-10 19:13:00,39.5,26.0,30.26,WNW,302,2.0,4.0,59,0.00,,,0.20,weatherlink.com 1.10,2013-12-11 00:13:00,
2013-12-10 19:28:00,38.6,26.0,30.26,NW,309,1.0,3.0,62,0.00,,,0.20,weatherlink.com 1.10,2013-12-11 00:28:00,
2013-12-10 19:43:00,38.4,25.0,30.26,NNW,344,1.0,5.0,60,0.00,,,0.20,weatherlink.com 1.10,2013-12-11 00:43:00,
2013-12-10 19:58:00,37.5,26.0,30.27,NNW,338,2.0,3.0,63,0.00,,,0.20,weatherlink.com 1.10,2013-12-11 00:58:00,
2013-12-10 20:13:00,36.9,28.0,30.27,NNE,30,0.0,3.0,70,0.00,,,0.20,weatherlink.com 1.10,2013-12-11 01:13:00,
2013-12-10 20:28:00,35.2,26.0,30.28,NW,318,1.0,2.0,70,0.00,,,0.20,weatherlink.com 1.10,2013-12-11 01:28:00,
2013-12-10 20:43:00,35.3,26.0,30.29,East,86,2.0,5.0,70,0.00,,,0.20,weatherlink.com 1.10,2013-12-11 01:43:00,
2013-12-10 20:58:00,35.6,23.0,30.28,North,355,2.0,13.0,60,0.00,,,0.20,weatherlink.com 1.10,2013-12-11 01:58:00,
2013-12-10 21:13:00,36.5,22.0,30.29,NNW,344,3.0,8.0,55,0.00,,,0.20,weatherlink.com 1.10,2013-12-11 02:13:00,
2013-12-10 21:28:00,37.1,24.0,30.29,NE,34,3.0,8.0,59,0.00,,,0.20,weatherlink.com 1.10,2013-12-11 02:28:00,
2013-12-10 21:43:00,37.3,21.0,30.30,NNE,24,4.0,14.0,52,0.00,,,0.20,weatherlink.com 1.10,2013-12-11 02:43:00,
2013-12-10 21:58:00,37.4,20.0,30.30,NNE,27,4.0,12.0,50,0.00,,,0.20,weatherlink.com 1.10,2013-12-11 02:58:00,
2013-12-10 22:13:00,37.3,21.0,30.30,NE,52,4.0,10.0,51,0.00,,,0.20,weatherlink.com 1.10,2013-12-11 03:13:00,
2013-12-10 22:28:00,37.2,20.0,30.31,NW,311,2.0,8.0,50,0.00,,,0.20,weatherlink.com 1.10,2013-12-11 03:28:00,
2013-12-10 22:43:00,37.3,19.0,30.31,NNE,28,2.0,10.0,47,0.00,,,0.20,weatherlink.com 1.10,2013-12-11 03:43:00,
2013-12-10 22:58:00,37.3,20.0,30.32,North,355,2.0,4.0,49,0.00,,,0.20,weatherlink.com 1.10,2013-12-11 03:58:00,
2013-12-10 23:13:00,36.7,19.0,30.31,WSW,252,2.0,6.0,49,0.00,,,0.20,weatherlink.com 1.10,2013-12-11 04:13:00,
2013-12-10 23:28:00,36.3,23.0,30.32,WSW,247,1.0,2.0,58,0.00,,,0.20,weatherlink.com 1.10,2013-12-11 04:28:00,
2013-12-10 23:43:00,34.7,24.0,30.32,SSE,165,0.0,3.0,64,0.00,,,0.20,weatherlink.com 1.10,2013-12-11 04:43:00,
2013-12-10 23:58:00,33.7,24.0,30.32,SSE,165,1.0,2.0,67,0.00,,,0.20,weatherlink.com 1.10,2013-12-11 04:58:00,